Time,TemperatureF,DewpointF,PressureIn,WindDirection,WindDirectionDegrees,WindSpeedMPH,WindSpeedGustMPH,Humidity,HourlyPrecipIn,Conditions,Clouds,dailyrainin,SolarRadiationWatts/m^2,SoftwareType,DateUTC
2013-08-30 00:03:00,70.7,68.6,29.80,SW,228,3.0,4.0,93,0.00,,SCT,0.00,0.00,VWS V14.01,2013-08-30 05:03:00,
2013-08-30 00:08:00,70.7,68.6,29.80,SW,229,3.0,5.0,93,0.00,,SCT,0.00,0.00,VWS V14.01,2013-08-30 05:08:00,
2013-08-30 00:13:00,70.9,68.8,29.80,WSW,241,7.0,7.0,93,0.00,,SCT,0.00,0.00,VWS V14.01,2013-08-30 05:13:00,
2013-08-30 00:18:00,71.0,68.9,29.81,SW,236,4.0,7.0,93,0.00,,SCT,0.00,0.00,VWS V14.01,2013-08-30 05:18:00,
2013-08-30 00:23:00,71.1,69.0,29.80,WSW,240,4.0,5.0,93,0.00,,SCT,0.00,0.00,VWS V14.01,2013-08-30 05:23:00,
2013-08-30 00:28:00,71.1,69.0,29.80,SW,230,4.0,6.0,93,0.00,,SCT,0.00,0.00,VWS V14.01,2013-08-30 05:28:00,
2013-08-30 00:33:00,71.2,69.1,29.80,WSW,242,5.0,7.0,93,0.00,,SCT,0.00,0.00,VWS V14.01,2013-08-30 05:33:00,
2013-08-30 00:38:00,71.2,69.1,29.81,SW,229,2.0,5.0,93,0.00,,SCT,0.00,0.00,VWS V14.01,2013-08-30 05:38:00,
2013-08-30 00:43:00,71.2,69.1,29.80,WSW,240,3.0,6.0,93,0.00,,SCT,0.00,0.00,VWS V14.01,2013-08-30 05:43:00,
2013-08-30 00:48:00,71.2,69.1,29.80,WSW,240,5.0,5.0,93,0.00,,SCT,0.00,0.00,VWS V14.01,2013-08-30 05:48:00,
2013-08-30 00:53:00,71.1,69.0,29.80,SW,229,0.0,4.0,93,0.00,,SCT,0.00,0.00,VWS V14.01,2013-08-30 05:53:00,
2013-08-30 00:58:00,71.1,69.0,29.80,WSW,237,1.0,5.0,93,0.00,,SCT,0.00,0.00,VWS V14.01,2013-08-30 05:58:00,
2013-08-30 01:03:00,71.1,69.0,29.80,SW,223,1.0,6.0,93,0.00,,SCT,0.00,0.00,VWS V14.01,2013-08-30 06:03:00,
2013-08-30 01:08:00,71.0,68.9,29.80,SW,225,2.0,3.0,93,0.00,,SCT,0.00,0.00,VWS V14.01,2013-08-30 06:08:00,
2013-08-30 01:13:00,71.1,69.0,29.80,WSW,238,4.0,4.0,93,0.00,,SCT,0.00,0.00,VWS V14.01,2013-08-30 06:13:00,
2013-08-30 01:18:00,71.1,69.0,29.79,SW,229,2.0,5.0,93,0.00,,SCT,0.00,0.00,VWS V14.01,2013-08-30 06:18:00,
2013-08-30 01:23:00,71.1,69.0,29.80,SW,233,3.0,5.0,93,0.00,,SCT,0.00,0.00,VWS V14.01,2013-08-30 06:23:00,
2013-08-30 01:28:00,71.1,69.0,29.79,SW,234,5.0,5.0,93,0.00,,SCT,0.00,0.00,VWS V14.01,2013-08-30 06:28:00,
2013-08-30 01:33:00,71.0,68.9,29.79,WSW,240,4.0,4.0,93,0.00,,SCT,0.00,0.00,VWS V14.01,2013-08-30 06:33:00,
2013-08-30 01:38:00,71.0,68.9,29.79,SW,216,3.0,4.0,93,0.00,,SCT,0.00,0.00,VWS V14.01,2013-08-30 06:38:00,
2013-08-30 01:43:00,70.9,68.8,29.78,WSW,239,2.0,5.0,93,0.00,,SCT,0.00,0.00,VWS V14.01,2013-08-30 06:43:00,
2013-08-30 01:48:00,70.9,68.8,29.78,SW,226,4.0,6.0,93,0.00,,SCT,0.00,0.00,VWS V14.01,2013-08-30 06:48:00,
2013-08-30 01:53:00,70.9,68.8,29.78,WSW,240,3.0,4.0,93,0.00,,SCT,0.00,0.00,VWS V14.01,2013-08-30 06:53:00,
2013-08-30 01:58:00,70.8,68.7,29.79,WSW,248,1.0,5.0,93,0.00,,SCT,0.00,0.00,VWS V14.01,2013-08-30 06:58:00,
2013-08-30 02:03:00,70.9,68.8,29.79,West,278,1.0,3.0,93,0.00,,SCT,0.00,0.00,VWS V14.01,2013-08-30 07:03:00,
2013-08-30 02:08:00,70.7,68.6,29.79,West,278,0.0,3.0,93,0.00,,SCT,0.00,0.00,VWS V14.01,2013-08-30 07:08:00,
2013-08-30 02:13:00,70.6,68.5,29.79,West,279,0.0,0.0,93,0.00,,SCT,0.00,0.00,VWS V14.01,2013-08-30 07:13:00,
2013-08-30 02:18:00,70.4,68.3,29.79,West,279,0.0,0.0,93,0.00,,SCT,0.00,0.00,VWS V14.01,2013-08-30 07:18:00,
2013-08-30 02:23:00,70.3,68.2,29.78,West,278,0.0,0.0,93,0.00,,SCT,0.00,0.00,VWS V14.01,2013-08-30 07:23:00,
2013-08-30 02:28:00,70.1,68.3,29.78,West,278,0.0,0.0,94,0.00,,SCT,0.00,0.00,VWS V14.01,2013-08-30 07:28:00,
2013-08-30 02:34:00,70.1,68.3,29.78,West,279,0.0,0.0,94,0.00,,SCT,0.00,0.00,VWS V14.01,2013-08-30 07:34:00,
2013-08-30 02:39:00,70.3,68.5,29.78,West,278,0.0,0.0,94,0.00,,SCT,0.00,0.00,VWS V14.01,2013-08-30 07:39:00,
2013-08-30 02:44:00,70.5,68.7,29.78,West,278,0.0,0.0,94,0.00,,SCT,0.00,0.00,VWS V14.01,2013-08-30 07:44:00,
2013-08-30 02:49:00,70.3,68.5,29.78,West,278,0.0,0.0,94,0.00,,SCT,0.00,0.00,VWS V14.01,2013-08-30 07:49:00,
2013-08-30 02:54:00,70.3,68.5,29.78,West,278,0.0,0.0,94,0.00,,SCT,0.00,0.00,VWS V14.01,2013-08-30 07:54:00,
2013-08-30 02:59:00,70.6,68.8,29.78,West,278,0.0,0.0,94,0.00,,SCT,0.00,0.00,VWS V14.01,2013-08-30 07:59:00,
2013-08-30 03:04:00,70.7,68.9,29.78,West,278,0.0,0.0,94,0.00,,SCT,0.00,0.00,VWS V14.01,2013-08-30 08:04:00,
2013-08-30 03:09:00,70.5,68.7,29.78,West,278,0.0,0.0,94,0.00,,SCT,0.00,0.00,VWS V14.01,2013-08-30 08:09:00,
2013-08-30 03:14:00,70.5,68.7,29.79,West,278,0.0,0.0,94,0.00,,SCT,0.00,0.00,VWS V14.01,2013-08-30 08:14:00,
2013-08-30 03:19:00,70.4,68.6,29.78,West,278,0.0,0.0,94,0.00,,SCT,0.00,0.00,VWS V14.01,2013-08-30 08:19:00,
2013-08-30 03:24:00,70.3,68.5,29.78,West,278,0.0,0.0,94,0.00,,SCT,0.00,0.00,VWS V14.01,2013-08-30 08:24:00,
2013-08-30 03:29:00,70.3,68.5,29.78,West,278,0.0,0.0,94,0.00,,SCT,0.00,0.00,VWS V14.01,2013-08-30 08:29:00,
2013-08-30 03:34:00,70.3,68.5,29.78,West,278,0.0,0.0,94,0.00,,SCT,0.00,0.00,VWS V14.01,2013-08-30 08:34:00,
2013-08-30 03:39:00,70.1,68.3,29.77,West,278,0.0,0.0,94,0.00,,SCT,0.00,0.00,VWS V14.01,2013-08-30 08:39:00,
2013-08-30 03:44:00,69.9,68.1,29.77,West,277,0.0,0.0,94,0.00,,SCT,0.00,0.00,VWS V14.01,2013-08-30 08:44:00,
2013-08-30 03:49:00,69.7,67.9,29.77,West,279,0.0,0.0,94,0.00,,SCT,0.00,0.00,VWS V14.01,2013-08-30 08:49:00,
2013-08-30 03:54:00,69.5,67.7,29.77,West,278,0.0,0.0,94,0.00,,SCT,0.00,0.00,VWS V14.01,2013-08-30 08:54:00,
2013-08-30 03:59:00,69.5,67.7,29.77,West,278,0.0,0.0,94,0.00,,SCT,0.00,0.00,VWS V14.01,2013-08-30 08:59:00,
2013-08-30 04:04:00,69.4,67.6,29.77,West,278,0.0,0.0,94,0.00,,SCT,0.00,0.00,VWS V14.01,2013-08-30 09:04:00,
2013-08-30 04:09:00,69.4,67.6,29.77,West,278,0.0,0.0,94,0.00,,SCT,0.00,0.00,VWS V14.01,2013-08-30 09:09:00,
2013-08-30 04:14:00,69.5,68.0,29.78,West,278,0.0,0.0,95,0.00,,SCT,0.00,0.00,VWS V14.01,2013-08-30 09:14:00,
2013-08-30 04:19:00,69.6,68.1,29.78,West,278,0.0,0.0,95,0.00,,SCT,0.00,0.00,VWS V14.01,2013-08-30 09:19:00,
2013-08-30 04:24:00,70.1,68.6,29.78,West,278,0.0,0.0,95,0.00,,SCT,0.00,0.00,VWS V14.01,2013-08-30 09:24:00,
2013-08-30 04:29:00,70.1,68.6,29.78,West,279,0.0,0.0,95,0.00,,SCT,0.00,0.00,VWS V14.01,2013-08-30 09:29:00,
2013-08-30 04:34:00,70.1,68.6,29.78,West,279,0.0,0.0,95,0.00,,SCT,0.00,0.00,VWS V14.01,2013-08-30 09:34:00,
2013-08-30 04:39:00,70.1,68.6,29.78,West,279,0.0,0.0,95,0.00,,SCT,0.00,0.00,VWS V14.01,2013-08-30 09:39:00,
2013-08-30 04:45:00,70.3,68.8,29.78,West,279,0.0,0.0,95,0.00,,SCT,0.00,0.00,VWS V14.01,2013-08-30 09:45:00,
2013-08-30 04:50:00,70.4,68.9,29.78,West,278,0.0,0.0,95,0.00,,SCT,0.00,0.00,VWS V14.01,2013-08-30 09:50:00,
2013-08-30 04:55:00,70.6,69.1,29.78,West,278,0.0,0.0,95,0.00,,SCT,0.00,0.00,VWS V14.01,2013-08-30 09:55:00,
2013-08-30 05:00:00,70.6,69.1,29.78,West,279,0.0,2.0,95,0.00,,SCT,0.00,0.00,VWS V14.01,2013-08-30 10:00:00,
2013-08-30 05:05:00,70.6,69.1,29.78,NNW,335,0.0,5.0,95,0.00,,SCT,0.00,0.00,VWS V14.01,2013-08-30 10:05:00,
2013-08-30 05:10:00,70.5,69.0,29.78,NNW,336,0.0,2.0,95,0.00,,SCT,0.00,0.00,VWS V14.01,2013-08-30 10:10:00,
2013-08-30 05:15:00,70.3,68.5,29.78,NNW,336,0.0,3.0,94,0.00,,SCT,0.00,0.00,VWS V14.01,2013-08-30 10:15:00,
2013-08-30 05:20:00,70.4,68.6,29.78,NNW,337,0.0,5.0,94,0.00,,SCT,0.00,0.00,VWS V14.01,2013-08-30 10:20:00,
2013-08-30 05:25:00,70.4,68.6,29.78,North,360,4.0,4.0,94,0.00,,SCT,0.00,0.00,VWS V14.01,2013-08-30 10:25:00,
2013-08-30 05:30:00,70.2,68.4,29.78,NNW,333,3.0,6.0,94,0.00,,SCT,0.00,0.00,VWS V14.01,2013-08-30 10:30:00,
2013-08-30 05:35:00,70.2,68.4,29.78,NNW,340,4.0,4.0,94,0.00,,SCT,0.00,0.00,VWS V14.01,2013-08-30 10:35:00,
2013-08-30 05:40:00,70.1,68.3,29.78,NNW,344,0.0,4.0,94,0.00,,SCT,0.00,0.00,VWS V14.01,2013-08-30 10:40:00,
2013-08-30 05:45:00,70.0,68.2,29.79,West,272,1.0,10.0,94,0.00,,SCT,0.00,0.00,VWS V14.01,2013-08-30 10:45:00,
2013-08-30 05:50:00,69.9,68.1,29.79,NE,53,1.0,7.0,94,0.00,,SCT,0.00,0.00,VWS V14.01,2013-08-30 10:50:00,
2013-08-30 05:55:00,69.7,67.6,29.79,North,355,1.0,6.0,93,0.00,,SCT,0.00,0.00,VWS V14.01,2013-08-30 10:55:00,
2013-08-30 06:00:00,69.6,67.5,29.79,North,5,0.0,7.0,93,0.00,,SCT,0.00,0.00,VWS V14.01,2013-08-30 11:00:00,
2013-08-30 06:05:00,69.5,67.4,29.80,NE,47,0.0,5.0,93,0.00,,SCT,0.00,0.00,VWS V14.01,2013-08-30 11:05:00,
2013-08-30 06:10:00,69.3,67.2,29.80,North,360,2.0,7.0,93,0.00,,SCT,0.00,0.00,VWS V14.01,2013-08-30 11:10:00,
2013-08-30 06:15:00,69.1,66.7,29.80,NE,36,0.0,5.0,92,0.00,,SCT,0.00,0.00,VWS V14.01,2013-08-30 11:15:00,
2013-08-30 06:20:00,69.0,66.6,29.80,NNE,26,0.0,5.0,92,0.00,,SCT,0.00,0.00,VWS V14.01,2013-08-30 11:20:00,
2013-08-30 06:25:00,68.9,66.5,29.80,North,5,4.0,7.0,92,0.00,,SCT,0.00,0.00,VWS V14.01,2013-08-30 11:25:00,
2013-08-30 06:30:00,68.8,66.4,29.80,NE,53,4.0,7.0,92,0.00,,SCT,0.00,0.00,VWS V14.01,2013-08-30 11:30:00,
2013-08-30 06:35:00,68.5,66.1,29.81,NNE,24,0.0,6.0,92,0.00,,SCT,0.00,0.00,VWS V14.01,2013-08-30 11:35:00,
2013-08-30 06:40:00,68.3,65.6,29.81,WNW,284,2.0,10.0,91,0.00,,SCT,0.00,0.00,VWS V14.01,2013-08-30 11:40:00,
2013-08-30 06:45:00,68.1,65.4,29.81,North,11,4.0,8.0,91,0.00,,SCT,0.00,7.00,VWS V14.01,2013-08-30 11:45:00,
2013-08-30 06:50:00,67.9,64.9,29.81,North,355,2.0,8.0,90,0.00,,SCT,0.00,12.00,VWS V14.01,2013-08-30 11:50:00,
2013-08-30 06:55:00,67.7,64.7,29.81,NNE,28,0.0,5.0,90,0.00,,SCT,0.00,21.00,VWS V14.01,2013-08-30 11:55:00,
2013-08-30 07:01:00,67.6,64.6,29.81,North,5,0.0,7.0,90,0.00,,SCT,0.00,19.00,VWS V14.01,2013-08-30 12:01:00,
2013-08-30 07:06:00,67.6,64.6,29.82,NNW,346,4.0,8.0,90,0.00,,SCT,0.00,32.00,VWS V14.01,2013-08-30 12:06:00,
2013-08-30 07:11:00,67.4,64.4,29.82,North,5,0.0,5.0,90,0.00,,SCT,0.00,26.00,VWS V14.01,2013-08-30 12:11:00,
2013-08-30 07:16:00,67.3,64.6,29.82,North,360,0.0,7.0,91,0.00,,SCT,0.00,37.00,VWS V14.01,2013-08-30 12:16:00,
2013-08-30 07:21:00,67.2,64.5,29.82,NNE,27,6.0,6.0,91,0.00,,SCT,0.00,44.00,VWS V14.01,2013-08-30 12:21:00,
2013-08-30 07:26:00,67.1,64.4,29.82,North,5,1.0,6.0,91,0.00,,SCT,0.00,54.00,VWS V14.01,2013-08-30 12:26:00,
2013-08-30 07:31:00,67.1,64.4,29.82,NE,40,0.0,0.0,91,0.00,,SCT,0.00,60.00,VWS V14.01,2013-08-30 12:31:00,
2013-08-30 07:36:00,67.1,64.4,29.82,North,9,0.0,0.0,91,0.00,,SCT,0.00,54.00,VWS V14.01,2013-08-30 12:36:00,
2013-08-30 07:41:00,67.1,64.1,29.82,WNW,291,0.0,0.0,90,0.00,,SCT,0.00,54.00,VWS V14.01,2013-08-30 12:41:00,
2013-08-30 07:46:00,67.1,64.1,29.83,NNW,348,2.0,3.0,90,0.00,,SCT,0.00,72.00,VWS V14.01,2013-08-30 12:46:00,
2013-08-30 07:51:00,67.1,64.1,29.83,NW,314,2.0,7.0,90,0.00,,SCT,0.00,77.00,VWS V14.01,2013-08-30 12:51:00,
2013-08-30 07:56:00,67.1,64.1,29.83,North,5,0.0,0.0,90,0.00,,SCT,0.00,76.00,VWS V14.01,2013-08-30 12:56:00,
2013-08-30 08:01:00,67.1,64.1,29.83,North,360,2.0,3.0,90,0.00,,SCT,0.00,65.00,VWS V14.01,2013-08-30 13:01:00,
2013-08-30 08:06:00,67.1,64.1,29.83,NE,44,3.0,5.0,90,0.00,,SCT,0.00,54.00,VWS V14.01,2013-08-30 13:06:00,
2013-08-30 08:12:00,67.0,64.0,29.83,SE,126,0.0,0.0,90,0.00,,SCT,0.00,65.00,VWS V14.01,2013-08-30 13:12:00,
2013-08-30 08:17:00,67.1,64.4,29.83,NNE,22,2.0,3.0,91,0.00,,SCT,0.00,77.00,VWS V14.01,2013-08-30 13:17:00,
2013-08-30 08:22:00,67.0,64.0,29.83,NNE,30,3.0,4.0,90,0.00,,SCT,0.00,111.00,VWS V14.01,2013-08-30 13:22:00,
2013-08-30 08:27:00,67.1,64.4,29.83,NE,37,2.0,2.0,91,0.00,,SCT,0.00,83.00,VWS V14.01,2013-08-30 13:27:00,
2013-08-30 08:32:00,67.2,64.2,29.83,NE,34,2.0,2.0,90,0.00,,SCT,0.00,72.00,VWS V14.01,2013-08-30 13:32:00,
2013-08-30 08:37:00,67.1,64.1,29.83,NE,46,0.0,0.0,90,0.00,,SCT,0.00,84.00,VWS V14.01,2013-08-30 13:37:00,
2013-08-30 08:42:00,67.1,64.1,29.83,ENE,71,2.0,3.0,90,0.00,,SCT,0.00,139.00,VWS V14.01,2013-08-30 13:42:00,
2013-08-30 08:47:00,67.2,64.2,29.83,NE,34,0.0,0.0,90,0.00,,SCT,0.00,134.00,VWS V14.01,2013-08-30 13:47:00,
2013-08-30 08:52:00,67.3,64.3,29.84,East,90,6.0,6.0,90,0.00,,SCT,0.00,141.00,VWS V14.01,2013-08-30 13:52:00,
2013-08-30 08:57:00,67.3,64.3,29.84,NE,38,1.0,5.0,90,0.00,,SCT,0.00,83.00,VWS V14.01,2013-08-30 13:57:00,
2013-08-30 09:02:00,67.2,64.5,29.84,NNE,16,2.0,2.0,91,0.00,,SCT,0.00,104.00,VWS V14.01,2013-08-30 14:02:00,
2013-08-30 09:07:00,67.2,64.5,29.84,NE,44,0.0,2.0,91,0.00,,SCT,0.00,167.00,VWS V14.01,2013-08-30 14:07:00,
2013-08-30 09:12:00,67.2,64.5,29.85,North,10,2.0,4.0,91,0.00,,SCT,0.00,74.00,VWS V14.01,2013-08-30 14:12:00,
2013-08-30 09:17:00,67.1,64.7,29.85,NNE,14,0.0,3.0,92,0.00,,SCT,0.00,104.00,VWS V14.01,2013-08-30 14:17:00,
2013-08-30 09:22:00,67.2,64.8,29.85,North,9,0.0,2.0,92,0.00,,SCT,0.00,120.00,VWS V14.01,2013-08-30 14:22:00,
2013-08-30 09:27:00,67.1,64.7,29.85,NNE,13,0.0,3.0,92,0.00,,SCT,0.00,121.00,VWS V14.01,2013-08-30 14:27:00,
2013-08-30 09:32:00,67.2,64.8,29.85,NW,313,0.0,0.0,92,0.00,,SCT,0.00,95.00,VWS V14.01,2013-08-30 14:32:00,
2013-08-30 09:37:00,67.3,64.9,29.85,NE,34,7.0,7.0,92,0.00,,SCT,0.00,77.00,VWS V14.01,2013-08-30 14:37:00,
2013-08-30 09:42:00,67.2,64.8,29.86,NNE,32,2.0,5.0,92,0.00,,SCT,0.00,74.00,VWS V14.01,2013-08-30 14:42:00,
2013-08-30 09:47:00,67.0,64.6,29.86,East,79,0.0,2.0,92,0.00,,SCT,0.00,91.00,VWS V14.01,2013-08-30 14:47:00,
2013-08-30 09:52:00,67.1,64.7,29.86,NE,49,0.0,3.0,92,0.00,,SCT,0.00,206.00,VWS V14.01,2013-08-30 14:52:00,
2013-08-30 09:57:00,67.3,64.9,29.86,North,360,1.0,6.0,92,0.00,,SCT,0.00,239.00,VWS V14.01,2013-08-30 14:57:00,
2013-08-30 10:02:00,67.7,65.3,29.86,ENE,73,4.0,7.0,92,0.00,,SCT,0.00,135.00,VWS V14.01,2013-08-30 15:02:00,
2013-08-30 10:07:00,67.8,65.1,29.87,North,5,4.0,6.0,91,0.00,,SCT,0.00,109.00,VWS V14.01,2013-08-30 15:07:00,
2013-08-30 10:12:00,67.5,64.5,29.87,NW,318,4.0,4.0,90,0.00,,SCT,0.00,130.00,VWS V14.01,2013-08-30 15:12:00,
2013-08-30 10:17:00,67.4,64.4,29.87,NE,55,1.0,12.0,90,0.00,,SCT,0.00,130.00,VWS V14.01,2013-08-30 15:17:00,
2013-08-30 10:22:00,67.2,64.2,29.88,ESE,106,0.0,3.0,90,0.00,,SCT,0.00,130.00,VWS V14.01,2013-08-30 15:22:00,
2013-08-30 10:27:00,67.1,64.1,29.87,NE,55,2.0,5.0,90,0.00,,SCT,0.00,125.00,VWS V14.01,2013-08-30 15:27:00,
2013-08-30 10:33:00,66.9,64.2,29.88,NE,43,1.0,5.0,91,0.00,,SCT,0.00,146.00,VWS V14.01,2013-08-30 15:33:00,
2013-08-30 10:38:00,66.9,64.2,29.88,ENE,64,1.0,8.0,91,0.00,,SCT,0.00,172.00,VWS V14.01,2013-08-30 15:38:00,
2013-08-30 10:43:00,66.8,64.1,29.88,East,93,0.0,3.0,91,0.00,,SCT,0.00,169.00,VWS V14.01,2013-08-30 15:43:00,
2013-08-30 10:48:00,66.9,64.5,29.88,ESE,120,0.0,3.0,92,0.00,,SCT,0.00,160.00,VWS V14.01,2013-08-30 15:48:00,
2013-08-30 10:53:00,66.9,64.2,29.88,ENE,59,0.0,3.0,91,0.00,,SCT,0.00,200.00,VWS V14.01,2013-08-30 15:53:00,
2013-08-30 10:58:00,67.3,64.6,29.88,ENE,72,0.0,4.0,91,0.00,,SCT,0.00,336.00,VWS V14.01,2013-08-30 15:58:00,
2013-08-30 11:03:00,68.0,64.6,29.88,ENE,71,2.0,5.0,89,0.00,,SCT,0.00,311.00,VWS V14.01,2013-08-30 16:03:00,
2013-08-30 11:08:00,69.0,65.3,29.88,ENE,58,2.0,5.0,88,0.00,,SCT,0.00,960.00,VWS V14.01,2013-08-30 16:08:00,
2013-08-30 11:13:00,69.4,65.0,29.88,NE,53,0.0,5.0,86,0.00,,SCT,0.00,299.00,VWS V14.01,2013-08-30 16:13:00,
2013-08-30 11:18:00,69.3,64.9,29.88,NE,53,2.0,4.0,86,0.00,,SCT,0.00,301.00,VWS V14.01,2013-08-30 16:18:00,
2013-08-30 11:23:00,69.5,65.1,29.89,ENE,63,4.0,9.0,86,0.00,,SCT,0.00,287.00,VWS V14.01,2013-08-30 16:23:00,
2013-08-30 11:28:00,69.7,65.0,29.88,North,5,4.0,9.0,85,0.00,,SCT,0.00,466.00,VWS V14.01,2013-08-30 16:28:00,
2013-08-30 11:33:00,69.9,64.8,29.89,East,82,3.0,7.0,84,0.00,,SCT,0.00,311.00,VWS V14.01,2013-08-30 16:33:00,
2013-08-30 11:38:00,70.0,64.9,29.88,East,92,0.0,7.0,84,0.00,,SCT,0.00,265.00,VWS V14.01,2013-08-30 16:38:00,
2013-08-30 11:43:00,70.2,65.1,29.89,ENE,72,0.0,6.0,84,0.01,,SCT,0.01,506.00,VWS V14.01,2013-08-30 16:43:00,
2013-08-30 11:48:00,70.9,65.1,29.89,ENE,77,1.0,7.0,82,0.01,,SCT,0.01,262.00,VWS V14.01,2013-08-30 16:48:00,
2013-08-30 11:53:00,71.1,66.0,29.89,NE,53,4.0,8.0,84,0.01,,SCT,0.01,378.00,VWS V14.01,2013-08-30 16:53:00,
2013-08-30 11:58:00,71.1,65.3,29.89,NW,321,0.0,5.0,82,0.01,,SCT,0.01,207.00,VWS V14.01,2013-08-30 16:58:00,
2013-08-30 12:03:00,71.9,66.5,29.89,North,355,2.0,5.0,83,0.01,,SCT,0.01,925.00,VWS V14.01,2013-08-30 17:03:00,
2013-08-30 12:08:00,72.9,65.7,29.89,SSW,196,1.0,17.0,78,0.01,,SCT,0.01,865.00,VWS V14.01,2013-08-30 17:08:00,
2013-08-30 12:13:00,73.3,65.7,29.89,North,360,4.0,8.0,77,0.01,,SCT,0.01,1005.00,VWS V14.01,2013-08-30 17:13:00,
2013-08-30 12:18:00,72.9,65.3,29.89,NNE,32,0.0,3.0,77,0.01,,SCT,0.01,396.00,VWS V14.01,2013-08-30 17:18:00,
2013-08-30 12:23:00,72.2,64.2,29.89,ENE,70,0.0,8.0,76,0.01,,SCT,0.01,879.00,VWS V14.01,2013-08-30 17:23:00,
2013-08-30 12:28:00,72.8,65.6,29.89,SE,134,2.0,8.0,78,0.01,,SCT,0.01,902.00,VWS V14.01,2013-08-30 17:28:00,
2013-08-30 12:33:00,73.0,65.4,29.89,NNE,28,8.0,9.0,77,0.01,,SCT,0.01,884.00,VWS V14.01,2013-08-30 17:33:00,
2013-08-30 12:38:00,72.9,65.7,29.89,ENE,59,7.0,12.0,78,0.01,,SCT,0.01,158.00,VWS V14.01,2013-08-30 17:38:00,
2013-08-30 12:43:00,72.5,64.9,29.89,NNE,32,0.0,7.0,77,0.00,,SCT,0.01,884.00,VWS V14.01,2013-08-30 17:43:00,
2013-08-30 12:48:00,73.3,65.3,29.89,NE,36,4.0,8.0,76,0.00,,SCT,0.01,840.00,VWS V14.01,2013-08-30 17:48:00,
2013-08-30 12:53:00,73.7,65.7,29.89,ENE,78,4.0,7.0,76,0.00,,SCT,0.01,838.00,VWS V14.01,2013-08-30 17:53:00,
2013-08-30 12:58:00,73.5,64.7,29.89,NE,41,4.0,8.0,74,0.00,,SCT,0.01,867.00,VWS V14.01,2013-08-30 17:58:00,
2013-08-30 13:04:00,74.0,66.0,29.89,WNW,284,0.0,7.0,76,0.00,,SCT,0.01,853.00,VWS V14.01,2013-08-30 18:04:00,
2013-08-30 13:09:00,74.3,65.5,29.89,NE,41,5.0,9.0,74,0.00,,SCT,0.01,853.00,VWS V14.01,2013-08-30 18:09:00,
2013-08-30 13:14:00,74.5,65.7,29.89,ENE,77,0.0,11.0,74,0.00,,SCT,0.01,851.00,VWS V14.01,2013-08-30 18:14:00,
2013-08-30 13:19:00,74.5,65.3,29.89,NNE,15,0.0,8.0,73,0.00,,SCT,0.01,837.00,VWS V14.01,2013-08-30 18:19:00,
2013-08-30 13:24:00,74.4,65.6,29.89,NE,37,3.0,7.0,74,0.00,,SCT,0.01,842.00,VWS V14.01,2013-08-30 18:24:00,
2013-08-30 13:29:00,74.2,64.2,29.89,ESE,115,1.0,11.0,71,0.00,,SCT,0.01,824.00,VWS V14.01,2013-08-30 18:29:00,
2013-08-30 13:34:00,74.2,64.6,29.89,NE,54,5.0,8.0,72,0.00,,SCT,0.01,821.00,VWS V14.01,2013-08-30 18:34:00,
2013-08-30 13:39:00,74.1,64.1,29.89,ENE,76,5.0,12.0,71,0.00,,SCT,0.01,816.00,VWS V14.01,2013-08-30 18:39:00,
2013-08-30 13:44:00,74.3,63.9,29.89,ENE,61,3.0,8.0,70,0.00,,SCT,0.01,817.00,VWS V14.01,2013-08-30 18:44:00,
2013-08-30 13:49:00,74.6,64.6,29.90,ESE,111,2.0,12.0,71,0.00,,SCT,0.01,814.00,VWS V14.01,2013-08-30 18:49:00,
2013-08-30 13:54:00,74.7,64.7,29.90,ENE,57,11.0,11.0,71,0.00,,SCT,0.01,814.00,VWS V14.01,2013-08-30 18:54:00,
2013-08-30 13:59:00,74.7,65.5,29.90,East,94,8.0,8.0,73,0.00,,SCT,0.01,819.00,VWS V14.01,2013-08-30 18:59:00,
2013-08-30 14:04:00,74.8,65.2,29.89,ENE,69,5.0,9.0,72,0.00,,SCT,0.01,819.00,VWS V14.01,2013-08-30 19:04:00,
2013-08-30 14:09:00,74.6,63.8,29.89,NE,50,1.0,7.0,69,0.00,,SCT,0.01,800.00,VWS V14.01,2013-08-30 19:09:00,
2013-08-30 14:14:00,74.2,64.2,29.89,East,81,2.0,9.0,71,0.00,,SCT,0.01,798.00,VWS V14.01,2013-08-30 19:14:00,
2013-08-30 14:19:00,74.8,65.6,29.89,ENE,70,1.0,8.0,73,0.00,,SCT,0.01,796.00,VWS V14.01,2013-08-30 19:19:00,
2013-08-30 14:24:00,75.2,65.6,29.89,NE,37,5.0,11.0,72,0.00,,SCT,0.01,791.00,VWS V14.01,2013-08-30 19:24:00,
2013-08-30 14:29:00,75.3,64.4,29.89,ESE,119,3.0,11.0,69,0.00,,SCT,0.01,786.00,VWS V14.01,2013-08-30 19:29:00,
2013-08-30 14:35:00,75.3,64.8,29.89,NNE,30,3.0,7.0,70,0.00,,SCT,0.01,780.00,VWS V14.01,2013-08-30 19:35:00,
2013-08-30 14:40:00,75.0,64.6,29.89,SE,129,7.0,13.0,70,0.00,,SCT,0.01,772.00,VWS V14.01,2013-08-30 19:40:00,
2013-08-30 14:45:00,75.0,64.6,29.89,NNE,17,0.0,6.0,70,0.00,,SCT,0.01,766.00,VWS V14.01,2013-08-30 19:45:00,
2013-08-30 14:50:00,74.8,64.8,29.89,NE,41,2.0,9.0,71,0.00,,SCT,0.01,765.00,VWS V14.01,2013-08-30 19:50:00,
2013-08-30 14:55:00,75.5,66.2,29.88,ENE,67,7.0,7.0,73,0.00,,SCT,0.01,751.00,VWS V14.01,2013-08-30 19:55:00,
2013-08-30 15:00:00,75.4,64.5,29.88,NNE,31,3.0,6.0,69,0.00,,SCT,0.01,745.00,VWS V14.01,2013-08-30 20:00:00,
2013-08-30 15:05:00,75.4,65.3,29.89,NE,46,0.0,10.0,71,0.00,,SCT,0.01,737.00,VWS V14.01,2013-08-30 20:05:00,
2013-08-30 15:10:00,75.1,63.8,29.88,NNE,21,2.0,8.0,68,0.00,,SCT,0.01,729.00,VWS V14.01,2013-08-30 20:10:00,
2013-08-30 15:15:00,75.2,64.8,29.88,ENE,73,0.0,9.0,70,0.00,,SCT,0.01,731.00,VWS V14.01,2013-08-30 20:15:00,
2013-08-30 15:20:00,75.0,65.0,29.88,East,90,0.0,9.0,71,0.00,,SCT,0.01,714.00,VWS V14.01,2013-08-30 20:20:00,
2013-08-30 15:25:00,75.1,65.1,29.88,NNE,19,4.0,9.0,71,0.00,,SCT,0.01,701.00,VWS V14.01,2013-08-30 20:25:00,
2013-08-30 15:30:00,74.8,65.2,29.88,North,5,0.0,8.0,72,0.00,,SCT,0.01,694.00,VWS V14.01,2013-08-30 20:30:00,
2013-08-30 15:35:00,74.9,65.7,29.88,NE,51,4.0,11.0,73,0.00,,SCT,0.01,682.00,VWS V14.01,2013-08-30 20:35:00,
2013-08-30 15:40:00,74.8,64.0,29.88,NE,43,3.0,11.0,69,0.00,,SCT,0.01,671.00,VWS V14.01,2013-08-30 20:40:00,
2013-08-30 15:45:00,74.6,65.4,29.89,ENE,69,3.0,7.0,73,0.00,,SCT,0.01,664.00,VWS V14.01,2013-08-30 20:45:00,
2013-08-30 15:50:00,74.6,65.4,29.88,NE,46,4.0,7.0,73,0.00,,SCT,0.01,652.00,VWS V14.01,2013-08-30 20:50:00,
2013-08-30 15:55:00,74.9,65.3,29.88,NNE,29,4.0,14.0,72,0.00,,SCT,0.01,645.00,VWS V14.01,2013-08-30 20:55:00,
2013-08-30 16:00:00,74.7,64.7,29.88,North,355,7.0,9.0,71,0.00,,SCT,0.01,635.00,VWS V14.01,2013-08-30 21:00:00,
2013-08-30 16:05:00,74.5,65.3,29.88,ENE,73,2.0,10.0,73,0.00,,SCT,0.01,619.00,VWS V14.01,2013-08-30 21:05:00,
2013-08-30 16:10:00,74.2,64.2,29.89,NE,42,3.0,18.0,71,0.00,,SCT,0.01,636.00,VWS V14.01,2013-08-30 21:10:00,
2013-08-30 16:15:00,73.9,64.3,29.89,East,84,0.0,10.0,72,0.00,,SCT,0.01,617.00,VWS V14.01,2013-08-30 21:15:00,
2013-08-30 16:20:00,73.5,64.3,29.89,NNE,22,1.0,9.0,73,0.00,,SCT,0.01,694.00,VWS V14.01,2013-08-30 21:20:00,
2013-08-30 16:25:00,73.3,64.1,29.89,NNW,338,0.0,16.0,73,0.00,,SCT,0.01,596.00,VWS V14.01,2013-08-30 21:25:00,
2013-08-30 16:30:00,73.3,64.1,29.89,ENE,67,7.0,7.0,73,0.00,,SCT,0.01,591.00,VWS V14.01,2013-08-30 21:30:00,
2013-08-30 16:35:00,73.0,64.2,29.89,North,360,5.0,10.0,74,0.00,,SCT,0.01,610.00,VWS V14.01,2013-08-30 21:35:00,
2013-08-30 16:40:00,72.2,63.8,29.89,NE,52,3.0,10.0,75,0.00,,SCT,0.01,587.00,VWS V14.01,2013-08-30 21:40:00,
2013-08-30 16:45:00,72.4,64.0,29.90,East,94,3.0,11.0,75,0.00,,SCT,0.01,566.00,VWS V14.01,2013-08-30 21:45:00,
2013-08-30 16:50:00,72.6,64.6,29.90,NE,44,7.0,7.0,76,0.00,,SCT,0.01,413.00,VWS V14.01,2013-08-30 21:50:00,
2013-08-30 16:55:00,72.5,64.1,29.90,ENE,77,3.0,10.0,75,0.00,,SCT,0.01,624.00,VWS V14.01,2013-08-30 21:55:00,
2013-08-30 17:00:00,72.5,63.8,29.90,NNE,21,4.0,14.0,74,0.00,,SCT,0.01,490.00,VWS V14.01,2013-08-30 22:00:00,
2013-08-30 17:05:00,72.2,63.5,29.89,North,11,8.0,10.0,74,0.00,,SCT,0.01,455.00,VWS V14.01,2013-08-30 22:05:00,
2013-08-30 17:10:00,71.8,63.5,29.90,ENE,75,2.0,11.0,75,0.00,,SCT,0.01,455.00,VWS V14.01,2013-08-30 22:10:00,
2013-08-30 17:15:00,71.9,63.5,29.89,ENE,61,3.0,10.0,75,0.00,,SCT,0.01,439.00,VWS V14.01,2013-08-30 22:15:00,
2013-08-30 17:20:00,71.7,63.7,29.89,NE,49,6.0,9.0,76,0.00,,SCT,0.01,436.00,VWS V14.01,2013-08-30 22:20:00,
2013-08-30 17:25:00,71.7,63.7,29.89,NNE,17,5.0,10.0,76,0.00,,SCT,0.01,397.00,VWS V14.01,2013-08-30 22:25:00,
2013-08-30 17:30:00,71.3,63.0,29.89,NE,39,0.0,9.0,75,0.00,,SCT,0.01,381.00,VWS V14.01,2013-08-30 22:30:00,
2013-08-30 17:35:00,70.9,63.0,29.89,NNE,22,2.0,11.0,76,0.00,,SCT,0.01,371.00,VWS V14.01,2013-08-30 22:35:00,
2013-08-30 17:41:00,71.1,63.2,29.89,NE,53,4.0,9.0,76,0.00,,SCT,0.01,350.00,VWS V14.01,2013-08-30 22:41:00,
2013-08-30 17:46:00,70.9,63.3,29.90,NNE,20,0.0,6.0,77,0.00,,SCT,0.01,338.00,VWS V14.01,2013-08-30 22:46:00,
2013-08-30 17:51:00,71.0,63.8,29.90,WSW,257,0.0,9.0,78,0.00,,SCT,0.01,316.00,VWS V14.01,2013-08-30 22:51:00,
2013-08-30 17:56:00,70.8,63.2,29.90,ENE,59,0.0,10.0,77,0.00,,SCT,0.01,301.00,VWS V14.01,2013-08-30 22:56:00,
2013-08-30 18:01:00,70.9,63.7,29.90,NE,34,3.0,5.0,78,0.00,,SCT,0.01,283.00,VWS V14.01,2013-08-30 23:01:00,
2013-08-30 18:06:00,70.8,64.0,29.90,NNE,20,3.0,5.0,79,0.00,,SCT,0.01,267.00,VWS V14.01,2013-08-30 23:06:00,
2013-08-30 18:11:00,70.5,63.0,29.90,ENE,71,4.0,10.0,77,0.00,,SCT,0.01,253.00,VWS V14.01,2013-08-30 23:11:00,
2013-08-30 18:16:00,70.2,63.4,29.89,East,79,2.0,10.0,79,0.00,,SCT,0.01,234.00,VWS V14.01,2013-08-30 23:16:00,
2013-08-30 18:21:00,70.1,63.3,29.89,ENE,67,0.0,7.0,79,0.00,,SCT,0.01,218.00,VWS V14.01,2013-08-30 23:21:00,
2013-08-30 18:26:00,69.7,63.6,29.89,North,5,2.0,3.0,81,0.00,,SCT,0.01,200.00,VWS V14.01,2013-08-30 23:26:00,
2013-08-30 18:31:00,69.8,63.4,29.89,NNW,344,0.0,4.0,80,0.00,,SCT,0.01,181.00,VWS V14.01,2013-08-30 23:31:00,
2013-08-30 18:36:00,69.6,63.2,29.89,East,80,0.0,7.0,80,0.00,,SCT,0.01,162.00,VWS V14.01,2013-08-30 23:36:00,
2013-08-30 18:41:00,69.6,63.5,29.89,ESE,102,3.0,7.0,81,0.00,,SCT,0.01,146.00,VWS V14.01,2013-08-30 23:41:00,
2013-08-30 18:46:00,69.2,63.1,29.89,East,80,0.0,0.0,81,0.00,,SCT,0.01,125.00,VWS V14.01,2013-08-30 23:46:00,
2013-08-30 18:51:00,69.1,63.0,29.89,NNE,33,2.0,9.0,81,0.00,,SCT,0.01,107.00,VWS V14.01,2013-08-30 23:51:00,
2013-08-30 18:56:00,68.7,63.0,29.89,ENE,61,0.0,0.0,82,0.00,,SCT,0.01,90.00,VWS V14.01,2013-08-30 23:56:00,
2013-08-30 19:01:00,68.4,63.0,29.89,ENE,61,0.0,0.0,83,0.00,,SCT,0.01,76.00,VWS V14.01,2013-08-31 00:01:00,
2013-08-30 19:06:00,67.8,62.8,29.89,ENE,61,2.0,2.0,84,0.00,,SCT,0.01,62.00,VWS V14.01,2013-08-31 00:06:00,
2013-08-30 19:11:00,67.5,62.5,29.88,ENE,61,0.0,0.0,84,0.00,,SCT,0.01,42.00,VWS V14.01,2013-08-31 00:11:00,
2013-08-30 19:16:00,67.0,62.3,29.88,ENE,61,0.0,0.0,85,0.00,,SCT,0.01,25.00,VWS V14.01,2013-08-31 00:16:00,
2013-08-30 19:21:00,66.6,62.3,29.88,ENE,61,0.0,0.0,86,0.00,,SCT,0.01,19.00,VWS V14.01,2013-08-31 00:21:00,
2013-08-30 19:26:00,66.3,62.3,29.88,ENE,61,0.0,0.0,87,0.00,,SCT,0.01,16.00,VWS V14.01,2013-08-31 00:26:00,
2013-08-30 19:31:00,66.0,62.0,29.88,ENE,61,1.0,1.0,87,0.00,,SCT,0.01,12.00,VWS V14.01,2013-08-31 00:31:00,
2013-08-30 19:36:00,65.7,61.7,29.88,ENE,61,0.0,0.0,87,0.00,,SCT,0.01,9.00,VWS V14.01,2013-08-31 00:36:00,
2013-08-30 19:41:00,65.4,61.8,29.88,ENE,61,0.0,0.0,88,0.00,,SCT,0.01,5.00,VWS V14.01,2013-08-31 00:41:00,
2013-08-30 19:47:00,65.1,61.5,29.88,ENE,61,0.0,0.0,88,0.00,,SCT,0.01,0.00,VWS V14.01,2013-08-31 00:47:00,
2013-08-30 19:52:00,64.8,61.5,29.88,ENE,61,0.0,0.0,89,0.00,,SCT,0.01,0.00,VWS V14.01,2013-08-31 00:52:00,
2013-08-30 19:57:00,64.5,61.2,29.88,ENE,61,0.0,0.0,89,0.00,,SCT,0.01,0.00,VWS V14.01,2013-08-31 00:57:00,
2013-08-30 20:02:00,64.1,61.1,29.88,ENE,61,0.0,0.0,90,0.00,,SCT,0.01,0.00,VWS V14.01,2013-08-31 01:02:00,
2013-08-30 20:07:00,63.9,60.9,29.88,ENE,61,0.0,0.0,90,0.00,,SCT,0.01,0.00,VWS V14.01,2013-08-31 01:07:00,
2013-08-30 20:12:00,63.6,60.9,29.89,ENE,61,0.0,0.0,91,0.00,,SCT,0.01,0.00,VWS V14.01,2013-08-31 01:12:00,
2013-08-30 20:17:00,63.4,60.7,29.89,ENE,61,0.0,1.0,91,0.00,,SCT,0.01,0.00,VWS V14.01,2013-08-31 01:17:00,
2013-08-30 20:22:00,63.2,60.5,29.89,ENE,61,0.0,0.0,91,0.00,,SCT,0.01,0.00,VWS V14.01,2013-08-31 01:22:00,
2013-08-30 20:27:00,63.0,60.3,29.89,ENE,61,0.0,0.0,91,0.00,,SCT,0.01,0.00,VWS V14.01,2013-08-31 01:27:00,
2013-08-30 20:32:00,62.9,60.5,29.89,ENE,61,0.0,0.0,92,0.00,,SCT,0.01,0.00,VWS V14.01,2013-08-31 01:32:00,
2013-08-30 20:37:00,62.7,60.3,29.89,ENE,61,0.0,0.0,92,0.00,,SCT,0.01,0.00,VWS V14.01,2013-08-31 01:37:00,
2013-08-30 20:42:00,62.6,60.2,29.89,ENE,61,0.0,0.0,92,0.00,,SCT,0.01,0.00,VWS V14.01,2013-08-31 01:42:00,
2013-08-30 20:47:00,62.5,60.2,29.89,ENE,61,0.0,0.0,92,0.00,,SCT,0.01,0.00,VWS V14.01,2013-08-31 01:47:00,
2013-08-30 20:52:00,62.5,60.2,29.89,ENE,61,0.0,0.0,92,0.00,,SCT,0.01,0.00,VWS V14.01,2013-08-31 01:52:00,
2013-08-30 20:57:00,62.4,60.0,29.89,ENE,61,0.0,0.0,92,0.00,,SCT,0.01,0.00,VWS V14.01,2013-08-31 01:57:00,
2013-08-30 21:02:00,62.3,60.2,29.89,ENE,61,0.0,0.0,93,0.00,,SCT,0.01,0.00,VWS V14.01,2013-08-31 02:02:00,
2013-08-30 21:07:00,62.3,60.0,29.89,ENE,61,0.0,0.0,92,0.00,,SCT,0.01,0.00,VWS V14.01,2013-08-31 02:07:00,
2013-08-30 21:12:00,62.3,60.2,29.89,ESE,109,0.0,0.0,93,0.00,,SCT,0.01,0.00,VWS V14.01,2013-08-31 02:12:00,
2013-08-30 21:17:00,62.3,60.2,29.89,ESE,109,0.0,0.0,93,0.00,,SCT,0.01,0.00,VWS V14.01,2013-08-31 02:17:00,
2013-08-30 21:22:00,62.3,60.2,29.89,ESE,109,0.0,0.0,93,0.00,,SCT,0.01,0.00,VWS V14.01,2013-08-31 02:22:00,
2013-08-30 21:27:00,62.4,60.3,29.89,ESE,109,0.0,0.0,93,0.00,,SCT,0.01,0.00,VWS V14.01,2013-08-31 02:27:00,
2013-08-30 21:32:00,62.3,60.2,29.89,ESE,109,0.0,0.0,93,0.00,,SCT,0.01,0.00,VWS V14.01,2013-08-31 02:32:00,
2013-08-30 21:37:00,62.2,60.2,29.89,ESE,109,0.0,0.0,93,0.00,,SCT,0.01,0.00,VWS V14.01,2013-08-31 02:37:00,
2013-08-30 21:42:00,62.1,60.1,29.89,ESE,109,0.0,0.0,93,0.00,,SCT,0.01,0.00,VWS V14.01,2013-08-31 02:42:00,
2013-08-30 21:47:00,62.0,60.0,29.88,ESE,109,0.0,0.0,93,0.00,,SCT,0.01,0.00,VWS V14.01,2013-08-31 02:47:00,
2013-08-30 21:52:00,61.9,59.9,29.88,ESE,109,0.0,0.0,93,0.00,,SCT,0.01,0.00,VWS V14.01,2013-08-31 02:52:00,
2013-08-30 21:57:00,61.9,59.9,29.88,ESE,107,0.0,0.0,93,0.00,,SCT,0.01,0.00,VWS V14.01,2013-08-31 02:57:00,
2013-08-30 22:02:00,61.8,59.8,29.89,ESE,107,0.0,0.0,93,0.00,,SCT,0.01,0.00,VWS V14.01,2013-08-31 03:02:00,
2013-08-30 22:08:00,61.8,59.8,29.89,ESE,107,0.0,0.0,93,0.00,,SCT,0.01,0.00,VWS V14.01,2013-08-31 03:08:00,
2013-08-30 22:13:00,61.6,59.6,29.89,ESE,107,0.0,0.0,93,0.00,,SCT,0.01,0.00,VWS V14.01,2013-08-31 03:13:00,
2013-08-30 22:18:00,61.4,59.4,29.89,ESE,108,0.0,0.0,93,0.00,,SCT,0.01,0.00,VWS V14.01,2013-08-31 03:18:00,
2013-08-30 22:23:00,61.3,59.3,29.89,ESE,108,0.0,0.0,93,0.00,,SCT,0.01,0.00,VWS V14.01,2013-08-31 03:23:00,
2013-08-30 22:28:00,61.3,59.3,29.89,ESE,107,0.0,0.0,93,0.00,,SCT,0.01,0.00,VWS V14.01,2013-08-31 03:28:00,
2013-08-30 22:33:00,61.2,59.2,29.89,ESE,107,0.0,0.0,93,0.00,,SCT,0.01,0.00,VWS V14.01,2013-08-31 03:33:00,
2013-08-30 22:38:00,61.2,59.2,29.89,ESE,107,0.0,0.0,93,0.00,,SCT,0.01,0.00,VWS V14.01,2013-08-31 03:38:00,
2013-08-30 22:43:00,61.2,59.2,29.89,ESE,107,0.0,0.0,93,0.00,,SCT,0.01,0.00,VWS V14.01,2013-08-31 03:43:00,
2013-08-30 22:48:00,61.2,59.2,29.89,ESE,107,0.0,0.0,93,0.00,,SCT,0.01,0.00,VWS V14.01,2013-08-31 03:48:00,
2013-08-30 22:53:00,61.0,59.0,29.90,ESE,107,0.0,0.0,93,0.00,,SCT,0.01,0.00,VWS V14.01,2013-08-31 03:53:00,
2013-08-30 22:58:00,60.8,58.8,29.90,ESE,107,0.0,0.0,93,0.00,,SCT,0.01,0.00,VWS V14.01,2013-08-31 03:58:00,
2013-08-30 23:01:00,60.7,58.7,29.90,ESE,107,0.0,0.0,93,0.00,,SCT,0.01,0.00,VWS V14.01,2013-08-31 04:01:00,
2013-08-30 23:02:00,60.7,58.7,29.90,ESE,107,0.0,0.0,93,0.00,,SCT,0.01,0.00,VWS V14.01,2013-08-31 04:02:00,
2013-08-30 23:04:00,60.6,58.6,29.89,ESE,107,0.0,0.0,93,0.00,,SCT,0.01,0.00,VWS V14.01,2013-08-31 04:04:00,
2013-08-30 23:09:00,60.5,58.5,29.89,ESE,107,0.0,0.0,93,0.00,,SCT,0.01,0.00,VWS V14.01,2013-08-31 04:09:00,
2013-08-30 23:13:00,60.3,58.3,29.89,ESE,107,0.0,0.0,93,0.00,,SCT,0.01,0.00,VWS V14.01,2013-08-31 04:13:00,
2013-08-30 23:18:00,60.0,58.0,29.89,ESE,107,0.0,0.0,93,0.00,,SCT,0.01,0.00,VWS V14.01,2013-08-31 04:18:00,
2013-08-30 23:23:00,59.8,57.8,29.89,ESE,107,0.0,0.0,93,0.00,,SCT,0.01,0.00,VWS V14.01,2013-08-31 04:23:00,
2013-08-30 23:28:00,59.8,57.8,29.89,ESE,107,0.0,0.0,93,0.00,,SCT,0.01,0.00,VWS V14.01,2013-08-31 04:28:00,
2013-08-30 23:33:00,59.7,57.7,29.89,ESE,107,0.0,0.0,93,0.00,,SCT,0.01,0.00,VWS V14.01,2013-08-31 04:33:00,
2013-08-30 23:38:00,59.3,57.3,29.89,ESE,107,0.0,0.0,93,0.00,,SCT,0.01,0.00,VWS V14.01,2013-08-31 04:38:00,
2013-08-30 23:43:00,59.0,57.0,29.89,ESE,107,0.0,0.0,93,0.00,,SCT,0.01,0.00,VWS V14.01,2013-08-31 04:43:00,
2013-08-30 23:48:00,59.0,57.0,29.89,ESE,107,0.0,0.0,93,0.00,,SCT,0.01,0.00,VWS V14.01,2013-08-31 04:48:00,
2013-08-30 23:53:00,59.1,57.4,29.89,ESE,107,0.0,0.0,94,0.00,,SCT,0.01,0.00,VWS V14.01,2013-08-31 04:53:00,
2013-08-30 23:58:00,59.2,57.5,29.89,ESE,107,0.0,0.0,94,0.00,,SCT,0.01,0.00,VWS V14.01,2013-08-31 04:58:00,